W4SNA-4 Weather Reports


time (UTC)temp
C
wind
direction
speed
KPH
gust
KPH
rain 1hr
cm
rain 24hr
cm
rain mn
cm
humidity
%
barometer
mb
20260504211300 24 0 0.0 1.6 0.00 0.00 0.00 34 1008.9
20260504210800 24 0 0.0 1.6 0.00 0.00 0.00 33 1008.1
20260504210304 24 0 0.0 0.0 0.00 0.00 0.00 39 1008.1
20260504205800 24 0 0.0 0.0 0.00 0.00 0.00 33 1008.1
20260504205301 24 0 0.0 0.0 0.00 0.00 0.00 34 1008.1
20260504204800 24 0 0.0 0.0 0.00 0.00 0.00 35 1008.1
20260504204300 24 0 0.0 0.0 0.00 0.00 0.00 34 1008.1
20260504203801 24 0 0.0 0.0 0.00 0.00 0.00 35 1008.5
20260504203303 24 0 0.0 0.0 0.00 0.00 0.00 36 1008.5
20260504202800 24 0 0.0 0.0 0.00 0.00 0.00 37 1008.5
20260504202010 24 0 0.0 0.0 0.00 0.00 0.00 37 1008.6
20260504201510 24 0 0.0 0.0 0.00 0.00 0.00 37 1008.6
20260504201012 24 0 0.0 0.0 0.00 0.00 0.00 37 1008.6
20260504200510 23 0 0.0 0.0 0.00 0.00 0.00 39 1008.7
20260504200009 23 0 0.0 0.0 0.00 0.00 0.00 36 1008.7
20260504195628 23 0 0.0 0.0 0.00 0.00 0.00 39 1008.7
20260504195510 23 0 0.0 0.0 0.00 0.00 0.00 39 1008.7
20260504195016 23 0 0.0 0.0 0.00 0.00 0.00 39 1008.7
20260504194510 23 0 0.0 0.0 0.00 0.00 0.00 39 1008.7
20260504194010 23 0 0.0 0.0 0.00 0.00 0.00 38 1008.7
20260504193509 23 0 0.0 0.0 0.00 0.00 0.00 40 1009.1
20260504193012 23 0 0.0 0.0 0.00 0.00 0.00 39 1009.1
20260504192513 23 0 0.0 0.0 0.00 0.00 0.00 40 1009.1
20260504192010 23 0 0.0 1.6 0.00 0.00 0.00 40 1009.2
20260504191510 23 0 0.0 1.6 0.00 0.00 0.00 40 1009.2
20260504191011 23 0 0.0 0.0 0.00 0.00 0.00 39 1009.2
20260504190510 23 0 0.0 0.0 0.00 0.00 0.00 39 1009.4
20260504190010 23 0 0.0 0.0 0.00 0.00 0.00 41 1009.4
20260504185511 23 0 0.0 0.0 0.00 0.00 0.00 39 1009.4
20260504185010 23 0 0.0 0.0 0.00 0.00 0.00 39 1009.7
20260504184509 23 0 0.0 0.0 0.00 0.00 0.00 42 1009.7
20260504184017 23 0 0.0 0.0 0.00 0.00 0.00 40 1009.7
20260504183515 23 0 0.0 0.0 0.00 0.00 0.00 39 1009.8
20260504183009 23 0 0.0 0.0 0.00 0.00 0.00 39 1009.8
20260504182453 23 0 0.0 1.6 0.00 0.00 0.00 40 1009.9
20260504181954 23 0 0.0 1.6 0.00 0.00 0.00 38 1009.9
20260504181453 23 0 0.0 0.0 0.00 0.00 0.00 39 1009.9
20260504180953 23 0 0.0 0.0 0.00 0.00 0.00 40 1009.8
20260504180009 23 0 0.0 0.0 0.00 0.00 0.00 40 1009.8
20260504175509 23 0 0.0 0.0 0.00 0.00 0.00 41 1009.8
20260504175008 23 0 0.0 0.0 0.00 0.00 0.00 40 1009.9
20260504174511 23 0 0.0 0.0 0.00 0.00 0.00 39 1009.9
20260504174009 22 0 0.0 0.0 0.00 0.00 0.00 39 1009.9
20260504173509 22 0 0.0 0.0 0.00 0.00 0.00 37 1010.0
20260504173009 22 0 0.0 0.0 0.00 0.00 0.00 42 1010.0
20260504172508 22 0 0.0 0.0 0.00 0.00 0.00 40 1010.0
20260504172010 22 0 0.0 0.0 0.00 0.00 0.00 40 1010.4
20260504171509 22 0 0.0 0.0 0.00 0.00 0.00 39 1010.4
20260504171008 22 0 0.0 0.0 0.00 0.00 0.00 38 1010.4
20260504170509 22 0 0.0 0.0 0.00 0.00 0.00 39 1010.6
20260504160420 22 0 0.0 0.0 0.00 0.00 0.00 42 1011.8
20260504150918 20 0 0.0 1.6 0.00 0.00 0.00 48 1011.8
20260504150418 20 0 0.0 3.2 0.00 0.00 0.00 49 1011.8
20260504140918 15 0 0.0 0.0 0.00 0.00 0.00 65 1011.6
20260504140419 15 0 0.0 0.0 0.00 0.00 0.00 69 1011.6
20260504130420 11 0 0.0 0.0 0.00 0.00 0.00 75 1011.4
20260504130310 11 0 0.0 0.0 0.00 0.00 0.00 75 1011.4
20260504110556 11 0 0.0 0.0 0.00 0.00 0.00 73 1011.2
20260504100441 11 0 0.0 0.0 0.00 0.00 0.00 70 1011.2
20260504081746 11 0 0.0 0.0 0.00 0.00 0.00 68 1010.9
20260504081246 11 0 0.0 0.0 0.00 0.00 0.00 68 1010.9
20260504080747 11 0 0.0 0.0 0.00 0.00 0.00 68 1010.8
20260504080246 11 0 0.0 0.0 0.00 0.00 0.00 68 1010.8
20260504070247 11 0 0.0 0.0 0.00 0.00 0.00 69 1011.1
20260504050739 13 0 0.0 0.0 0.00 0.00 0.00 60 1011.3
20260504050242 13 0 0.0 0.0 0.00 0.00 0.00 60 1011.3
20260504045747 13 0 0.0 0.0 0.00 0.00 0.00 60 1011.3
20260504045247 13 0 0.0 0.0 0.00 0.00 0.00 60 1011.0
20260504044747 13 0 0.0 1.6 0.00 0.00 0.00 59 1011.0
20260504044253 13 0 0.0 1.6 0.00 0.00 0.00 59 1011.0
20260504043746 13 0 0.0 0.0 0.00 0.00 0.00 59 1011.2
20260504043246 13 0 0.0 0.0 0.00 0.00 0.00 59 1011.2
20260504042745 13 0 0.0 0.0 0.00 0.00 0.00 58 1011.2
20260504042246 13 0 0.0 0.0 0.00 0.00 0.00 57 1011.3
20260504041745 13 0 0.0 0.0 0.00 0.00 0.00 57 1011.3
20260504041255 13 0 0.0 0.0 0.00 0.00 0.00 57 1011.3
20260504040750 13 0 0.0 0.0 0.00 0.00 0.00 56 1011.3
20260504040327 13 0 0.0 0.0 0.00 0.00 0.00 55 1011.4
20260504040244 13 0 0.0 0.0 0.00 0.00 0.00 56 1011.3
20260504035746 13 0 0.0 0.0 0.00 0.00 0.00 55 1011.3
20260504035341 13 0 0.0 0.0 0.00 0.00 0.00 55 1011.4
20260504035246 13 0 0.0 0.0 0.00 0.00 0.00 55 1011.4
20260504034745 13 0 0.0 0.0 0.00 0.00 0.00 55 1011.4
20260504034246 13 0 0.0 0.0 0.00 0.00 0.00 54 1011.4
20260504033745 14 0 0.0 0.0 0.00 0.00 0.00 53 1011.5
20260504033247 14 0 0.0 0.0 0.00 0.00 0.00 53 1011.5
20260504032746 14 0 0.0 0.0 0.00 0.00 0.00 52 1011.5
20260504032246 14 0 0.0 0.0 0.00 0.00 0.00 52 1011.6
20260504031750 14 0 0.0 0.0 0.00 0.00 0.00 51 1011.6
20260504031245 14 0 0.0 0.0 0.00 0.00 0.00 51 1011.6
20260504030742 14 0 0.0 0.0 0.00 0.00 0.00 50 1011.5
20260504030244 15 0 0.0 0.0 0.00 0.00 0.00 50 1011.5
20260504025745 15 0 0.0 0.0 0.00 0.00 0.00 50 1011.5
20260504025335 15 0 0.0 0.0 0.00 0.00 0.00 49 1011.5
20260504024826 15 0 0.0 0.0 0.00 0.00 0.00 49 1011.5
20260504024246 15 0 0.0 0.0 0.00 0.00 0.00 48 1011.5
20260504023746 15 0 0.0 0.0 0.00 0.00 0.00 48 1011.4
20260504023242 15 0 0.0 0.0 0.00 0.00 0.00 48 1011.4
20260504022246 15 0 0.0 0.0 0.00 0.00 0.00 46 1011.2
20260504021745 15 0 0.0 0.0 0.00 0.00 0.00 46 1011.2
20260504021241 15 0 0.0 0.0 0.00 0.00 0.00 45 1011.2
20260504020739 15 0 0.0 0.0 0.00 0.00 0.00 44 1011.0
20260504020239 15 0 0.0 0.0 0.00 0.00 0.00 44 1011.0
20260504015739 15 0 0.0 0.0 0.00 0.00 0.00 44 1011.0
20260504015241 15 0 0.0 0.0 0.00 0.00 0.00 43 1010.8
20260504014816 15 0 0.0 0.0 0.00 0.00 0.00 43 1010.8
20260504014739 15 0 0.0 0.0 0.00 0.00 0.00 43 1010.8
20260504014239 15 0 0.0 0.0 0.00 0.00 0.00 43 1010.8
20260504013739 15 0 0.0 0.0 0.00 0.00 0.00 43 1010.8
20260504013242 15 0 0.0 0.0 0.00 0.00 0.00 42 1010.8
20260504012550 15 0 0.0 0.0 0.00 0.00 0.00 42 1010.8
20260504012056 15 0 0.0 0.0 0.00 0.00 0.00 43 1010.7
20260504011556 16 0 0.0 0.0 0.00 0.00 0.00 43 1010.7
20260504011056 16 0 0.0 0.0 0.00 0.00 0.00 42 1010.7
20260504010556 16 0 0.0 0.0 0.00 0.00 0.00 42 1010.5
20260504010056 16 0 0.0 0.0 0.00 0.00 0.00 41 1010.5
20260504005550 16 0 0.0 0.0 0.00 0.00 0.00 42 1010.5
20260504005058 16 0 0.0 0.0 0.00 0.00 0.00 42 1010.5
20260504004550 16 0 0.0 0.0 0.00 0.00 0.00 42 1010.5
20260504004028 16 0 0.0 0.0 0.00 0.00 0.00 42 1010.5
20260504003550 16 0 0.0 0.0 0.00 0.00 0.00 42 1010.4
20260504003029 16 0 0.0 0.0 0.00 0.00 0.00 42 1010.4
20260504002420 16 0 0.0 0.0 0.00 0.00 0.00 42 1010.3
20260504001919 16 0 0.0 0.0 0.00 0.00 0.00 42 1010.3
20260504001420 16 0 0.0 0.0 0.00 0.00 0.00 42 1010.3
20260504000920 16 0 0.0 0.0 0.00 0.00 0.00 41 1010.3
20260504000419 16 0 0.0 0.0 0.00 0.00 0.00 42 1010.3
20260503235923 16 0 0.0 0.0 0.00 0.00 0.00 41 1010.3
20260503235419 16 0 0.0 0.0 0.00 0.00 0.00 41 1010.3
20260503234919 16 0 0.0 0.0 0.00 0.00 0.00 42 1010.3
20260503234420 17 0 0.0 0.0 0.00 0.00 0.00 40 1010.3
20260503233919 17 0 0.0 0.0 0.00 0.00 0.00 40 1010.3
20260503233419 17 0 0.0 0.0 0.00 0.00 0.00 40 1010.3
20260503232931 17 0 0.0 0.0 0.00 0.00 0.00 38 1010.3
20260503232419 17 0 0.0 0.0 0.00 0.00 0.00 38 1010.3
20260503231920 17 0 0.0 0.0 0.00 0.00 0.00 39 1010.3
20260503231419 17 0 0.0 0.0 0.00 0.00 0.00 38 1010.3
20260503230919 17 0 0.0 0.0 0.00 0.00 0.00 39 1010.3
20260503230420 17 0 0.0 0.0 0.00 0.00 0.00 38 1010.3
20260503225839 17 0 0.0 0.0 0.00 0.00 0.00 37 1010.3
20260503225333 17 0 0.0 0.0 0.00 0.00 0.00 40 1010.4
20260503224833 17 0 0.0 0.0 0.00 0.00 0.00 39 1010.4
20260503224333 17 0 0.0 0.0 0.00 0.00 0.00 38 1010.4
20260503223833 17 0 0.0 0.0 0.00 0.00 0.00 39 1010.5
20260503223333 17 0 0.0 1.6 0.00 0.00 0.00 37 1010.5
20260503222834 17 0 0.0 1.6 0.00 0.00 0.00 38 1010.5
20260503222333 17 0 0.0 0.0 0.00 0.00 0.00 37 1010.7
20260503221831 18 0 0.0 0.0 0.00 0.00 0.00 37 1010.7
20260503221330 18 0 0.0 0.0 0.00 0.00 0.00 36 1010.7
20260503220831 18 0 0.0 0.0 0.00 0.00 0.00 38 1010.8
20260503220331 18 0 0.0 0.0 0.00 0.00 0.00 42 1010.8
20260503215832 18 0 0.0 0.0 0.00 0.00 0.00 38 1010.8
20260503215336 18 0 0.0 0.0 0.00 0.00 0.00 38 1010.9
20260503214831 18 0 0.0 0.0 0.00 0.00 0.00 38 1010.9
20260503214333 18 0 0.0 0.0 0.00 0.00 0.00 36 1010.9
20260503213831 18 0 0.0 0.0 0.00 0.00 0.00 35 1011.1
20260503213330 18 0 0.0 0.0 0.00 0.00 0.00 37 1011.1
20260503212834 18 0 0.0 0.0 0.00 0.00 0.00 37 1011.1
20260503212331 18 0 0.0 0.0 0.00 0.00 0.00 37 1011.3
20260503211831 18 0 0.0 0.0 0.00 0.00 0.00 38 1011.3